Weather History for KLOL - October, 2012

Change the Weather History Date:

Wednesday, October 31, 2012

  Actual Average Record
Temperature  
Mean Temperature 48 °F -  
Max Temperature 66 °F 60 °F 76 °F (1953)
Min Temperature 30 °F 28 °F 6 °F (1972)
Degree Days  
Heating Degree Days 17    
Moisture  
Dew Point 24 °F    
Average Humidity 44    
Maximum Humidity 66    
Minimum Humidity 17    
Precipitation  
Precipitation 0.00 in - - ()
Sea Level Pressure  
Sea Level Pressure 29.96 in    
Wind  
Wind Speed 4 mph (South)    
Max Wind Speed 9 mph    
Max Gust Speed -    
Visibility 10 miles    
Events      
Averages and records for this station are not official NWS values.
T = Trace of Precipitation, MM = Missing Value Source: NWS Daily Summary

Daily Weather History Graph

Daily Weather History Graph

Search for Another Location

Airport or City:

Trip Planner

Search our weather history database for the weather conditions in past years. The results will help you decide how hot, cold, wet, or windy it might be!

Date:

Astronomy

Oct. 31, 2012 Rise Set
Actual Time 7:22 AM PDT 5:52 PM PDT
Civil Twilight 6:54 AM PDT 6:20 PM PDT
Nautical Twilight 6:22 AM PDT 6:52 PM PDT
Astronomical Twilight 5:51 AM PDT 7:23 PM PDT
Moon 7:06 PM PDT (10/31) 9:08 AM PDT (10/31)
Length of Visible Light 11h 25m
Length of Day
10h 29m
Waning Gibbous, 97% of the Moon is Illuminated
Oct 31
Waning Gibbous
Nov 6
Last Quarter
Nov 13
New
Nov 20
First Quarter
Nov 28
Full

Hourly Weather History & Observations

Time (PDT) Temp. Windchill Dew Point Humidity Pressure Visibility Wind Dir Wind Speed Gust Speed Precip Events Conditions
12:53 AM 41.0 °F 38.0 °F 28.9 °F 62% 29.99 in 10.0 mi NNE 4.6 mph - N/A   Clear
1:53 AM 34.0 °F 29.8 °F 21.9 °F 61% 29.99 in 10.0 mi South 4.6 mph - N/A   Clear
2:53 AM 33.1 °F 30.0 °F 21.9 °F 64% 29.98 in 10.0 mi WNW 3.5 mph - N/A   Clear
3:53 AM 32.0 °F 27.5 °F 18.0 °F 56% 29.97 in 10.0 mi South 4.6 mph - N/A   Clear
4:53 AM 32.0 °F 27.5 °F 21.9 °F 66% 29.97 in 10.0 mi NNW 4.6 mph - N/A   Clear
5:53 AM 30.9 °F 26.2 °F 19.9 °F 64% 29.99 in 10.0 mi East 4.6 mph - N/A   Clear
6:53 AM 32.0 °F 28.7 °F 21.0 °F 64% 30.01 in 10.0 mi WNW 3.5 mph - N/A   Clear
7:53 AM 33.1 °F 28.7 °F 19.0 °F 56% 30.02 in 10.0 mi ESE 4.6 mph - N/A   Clear
8:53 AM 37.9 °F 35.5 °F 25.0 °F 60% 30.04 in 10.0 mi West 3.5 mph - N/A   Clear
9:53 AM 48.9 °F - 25.0 °F 39% 30.02 in 10.0 mi Calm Calm - N/A   Clear
10:53 AM 55.9 °F - 26.1 °F 32% 30.01 in 10.0 mi NNE 3.5 mph - N/A   Clear
11:53 AM 61.0 °F - 25.0 °F 25% 29.97 in 10.0 mi Calm Calm - N/A   Clear
12:53 PM 64.9 °F - 23.0 °F 20% 29.94 in 10.0 mi Calm Calm - N/A   Clear
1:53 PM 66.0 °F - 21.9 °F 19% 29.93 in 10.0 mi SW 4.6 mph - N/A   Clear
2:53 PM 66.9 °F - 21.0 °F 17% 29.91 in 10.0 mi SW 5.8 mph - N/A   Clear
3:53 PM 64.0 °F - 24.1 °F 22% 29.91 in 10.0 mi Calm Calm - N/A   Clear
5:53 PM 55.9 °F - 30.9 °F 39% 29.91 in 10.0 mi Calm Calm - N/A   Clear
6:53 PM 51.1 °F - 26.1 °F 38% 29.93 in 10.0 mi WNW 5.8 mph - N/A   Clear
7:53 PM 50.0 °F - 23.0 °F 35% 29.94 in 10.0 mi South 3.5 mph - N/A   Clear
8:53 PM 48.9 °F - 28.9 °F 46% 29.93 in 10.0 mi South 4.6 mph - N/A   Clear
9:53 PM 48.9 °F - 27.0 °F 43% 29.92 in 10.0 mi SE 3.5 mph - N/A   Clear
10:53 PM 48.9 °F - 27.0 °F 43% 29.91 in 10.0 mi East 4.6 mph - N/A   Clear
11:53 PM 53.1 °F - 24.1 °F 32% 29.89 in 10.0 mi SE 9.2 mph - N/A   Clear